Location: Carnoy
(49.9849°N, 2.7558°E)
Time: 23:52:51
(UTC+00:00)

Cosmos 1603 - Pass Details

Date: 24 January 2020
Orbit: 832 x 859 km, 71.0° (Epoch: 23 February)

Event Time Altitude Azimuth Distance (km) Brightness Sun altitude
Rises 19:16:38 0° 330° (NNW) 3,425 7.3 -26.6°
Reaches altitude 10° 19:19:06 10° 329° (NNW) 2,482 6.5 -27.0°
Maximum altitude 19:24:48 81° 243° (WSW) 860 3.7 -28.0°
Enters shadow 19:25:17 73° 187° (S) 882 3.7 -28.0°
